sat.trackr.live / text

‹ back to catalog

STARLINK-36627

NORAD 67635 · 2026-020U

PAYLOAD ACTIVE UNKNOWN

§ Identity

Operator
Country
US
Launch date
2026-01-30
Launch site
AFETR
Launch vehicle
Mass (kg)
RCS (m²)

Purposes: comms

External: N2YO · Heavens-Above · Gunter

§ Orbital elements

Epoch: 2026-09-19T00:40:46.917120Z

Period
94.27 min
Inclination
43.0024°
Eccentricity
0.0000799
Mean motion
15.27588453 rev/d
Perigee alt
482.5 km
Apogee alt
483.6 km
Semi-major
6,861.2 km
B*
6.2564e-4
RAAN
127.7849°
Arg perigee
354.1310°
Mean anomaly
5.9533°
Rev number
3,568

§ Raw data

STARLINK-366271 67635U 26020U   26262.02832080  .00016998  00000+0  62564-3 0  99962 67635  43.0024 127.7849 0000799 354.1310   5.9533 15.27588453 35687

JSON: /api/v1/satellites/67635 · /tle

For live sub-satellite position, see the globe view (requires WebGL).

§ Visibility from observer

Set your observer location to see the next 7 days of passes ≥ 10°. The values pass through the URL so the page stays shareable.

No JS? Fill the form by hand. The geolocation button needs JavaScript.